IZ2OSD Weather Reports


time (UTC)temp
C
wind
direction
speed
KPH
gust
KPH
rain 1hr
cm
rain 24hr
cm
rain mn
cm
humidity
%
barometer
mb
20260904171313 31 0.0 0.0 0.00 0.00 0.00 44 1016.4
20260904170302 32 0.0 1.6 0.00 0.00 0.00 43 1016.2
20260904165258 32 0.0 1.6 0.00 0.00 0.00 43 1016.6
20260904163400 32 0.0 0.0 0.00 0.00 0.00 39 1016.6
20260904162357 32 0.0 0.0 0.00 0.00 0.00 39 1016.4
20260904161348 32 0.0 0.0 0.00 0.00 0.00 42 1016.7
20260904160337 32 0.0 0.0 0.00 0.00 0.00 42 1016.5
20260904155334 32 315 1.6 3.2 0.00 0.00 0.00 42 1016.7
20260904154327 33 0.0 0.0 0.00 0.00 0.00 41 1016.8
20260904153324 33 315 0.0 1.6 0.00 0.00 0.00 41 1016.7
20260904152402 33 0.0 0.0 0.00 0.00 0.00 39 1016.8
20260904150350 33 0.0 0.0 0.00 0.00 0.00 38 1017.0
20260904145410 33 0.0 1.6 0.00 0.00 0.00 39 1017.0
20260904144342 33 315 0.0 1.6 0.00 0.00 0.00 39 1017.2
20260904143339 33 0.0 1.6 0.00 0.00 0.00 40 1017.1
20260904142335 32 315 4.8 9.7 0.00 0.00 0.00 43 1017.0
20260904141326 33 0.0 0.0 0.00 0.00 0.00 42 1017.1
20260904131256 32 337 0.0 3.2 0.00 0.00 0.00 44 1017.7
20260904125437 32 315 0.0 3.2 0.00 0.00 0.00 44 1018.1
20260904124434 32 337 0.0 1.6 0.00 0.00 0.00 45 1017.9
20260904123430 31 165 4.8 9.7 0.00 0.00 0.00 46 1018.1
20260904122447 30 315 4.8 9.7 0.00 0.00 0.00 48 1018.1
20260904121423 32 157 1.6 4.8 0.00 0.00 0.00 44 1018.4
20260904120419 32 315 1.6 3.2 0.00 0.00 0.00 45 1018.4
20260904115415 32 0.0 0.0 0.00 0.00 0.00 45 1018.3
20260904114413 31 112 0.0 3.2 0.00 0.00 0.00 48 1018.6
20260904113409 30 315 6.4 9.7 0.00 0.00 0.00 48 1018.9
20260904111902 31 315 3.2 6.4 0.00 0.00 0.00 46 1018.8
20260904110112 32 315 0.0 4.8 0.00 0.00 0.00 44 1019.0
20260904105109 30 337 0.0 3.2 0.00 0.00 0.00 50 1019.1
20260904104058 30 112 0.0 3.2 0.00 0.00 0.00 50 1018.8
20260904102701 30 0 1.6 6.4 0.00 0.00 0.00 50 1019.3
20260904101657 29 315 4.8 6.4 0.00 0.00 0.00 52 1019.3
20260904095658 30 90 1.6 4.8 0.00 0.00 0.00 49 1019.4
20260904094410 28 292 1.6 3.2 0.00 0.00 0.00 53 1019.5
20260904092912 30 292 1.6 3.2 0.00 0.00 0.00 52 1019.7
20260904091902 29 0.0 1.6 0.00 0.00 0.00 53 1019.5
20260904090859 29 135 1.6 3.2 0.00 0.00 0.00 52 1019.7
20260904085530 28 0.0 0.0 0.00 0.00 0.00 55 1019.5
20260904084525 28 112 0.0 3.2 0.00 0.00 0.00 55 1019.5
20260904083521 28 0.0 1.6 0.00 0.00 0.00 55 1019.6
20260904082033 26 315 3.2 6.4 0.00 0.00 0.00 58 1019.6
20260904081030 27 292 1.6 3.2 0.00 0.00 0.00 58 1019.4
20260904080024 27 292 0.0 3.2 0.00 0.00 0.00 55 1019.5
20260904075042 26 315 4.8 6.4 0.00 0.00 0.00 58 1019.7
20260904074015 27 315 3.2 4.8 0.00 0.00 0.00 56 1019.4
20260904073012 26 292 3.2 3.2 0.00 0.00 0.00 58 1019.2
20260904072009 25 292 1.6 3.2 0.00 0.00 0.00 60 1019.3
20260904071005 25 315 3.2 3.2 0.00 0.00 0.00 61 1019.1
20260904070124 25 292 1.6 3.2 0.00 0.00 0.00 61 1019.1
20260904065501 25 292 3.2 4.8 0.00 0.00 0.00 61 1019.3
20260904064458 24 315 1.6 4.8 0.00 0.00 0.00 64 1018.9
20260904063049 23 315 1.6 3.2 0.00 0.00 0.00 65 1019.1
20260904062045 23 315 1.6 3.2 0.00 0.00 0.00 64 1018.8
20260904061040 23 0.0 0.0 0.00 0.00 0.00 64 1019.1
20260904060057 22 90 0.0 3.2 0.00 0.00 0.00 68 1019.0
20260904055054 21 315 4.8 9.7 0.00 0.00 0.00 70 1018.9
20260904054024 21 337 0.0 3.2 0.00 0.00 0.00 72 1018.8
20260904053014 21 0.0 1.6 0.00 0.00 0.00 72 1018.6
20260904052010 21 0.0 0.0 0.00 0.00 0.00 74 1018.7
20260904051005 20 315 1.6 1.6 0.00 0.00 0.00 77 1018.6
20260904050002 20 315 1.6 3.2 0.00 0.00 0.00 76 1018.4
20260904045500 20 337 0.0 3.2 0.00 0.00 0.00 76 1018.6
20260904044457 20 0.0 0.0 0.00 0.00 0.00 75 1018.3
20260904043136 20 315 1.6 3.2 0.00 0.00 0.00 76 1018.6
20260904042127 20 0.0 0.0 0.00 0.00 0.00 76 1018.4
20260904041143 20 0.0 0.0 0.00 0.00 0.00 76 1018.3
20260904040118 20 0.0 0.0 0.00 0.00 0.00 77 1018.5
20260904035115 20 0.0 0.0 0.00 0.00 0.00 76 1018.6
20260904034112 20 0.0 0.0 0.00 0.00 0.00 77 1018.3
20260904033109 20 0.0 0.0 0.00 0.00 0.00 75 1018.5
20260904032107 21 0.0 0.0 0.00 0.00 0.00 74 1018.7
20260904031124 21 0.0 0.0 0.00 0.00 0.00 74 1018.6
20260904030058 21 0.0 0.0 0.00 0.00 0.00 74 1018.5
20260904025108 21 0.0 0.0 0.00 0.00 0.00 75 1018.4
20260904024045 21 0.0 0.0 0.00 0.00 0.00 75 1018.4
20260904023037 21 0.0 0.0 0.00 0.00 0.00 74 1018.4
20260904022025 21 0.0 0.0 0.00 0.00 0.00 74 1018.7
20260904021041 21 0.0 0.0 0.00 0.00 0.00 72 1018.3
20260904020013 22 0.0 0.0 0.00 0.00 0.00 71 1018.3
20260904015011 22 0.0 0.0 0.00 0.00 0.00 71 1018.4
20260904014010 22 0.0 0.0 0.00 0.00 0.00 70 1018.5
20260904013006 22 0.0 0.0 0.00 0.00 0.00 69 1018.3
20260904012004 22 0.0 0.0 0.00 0.00 0.00 67 1018.3
20260904011001 22 0.0 0.0 0.00 0.00 0.00 68 1018.5
20260904005958 22 315 1.6 3.2 0.00 0.00 0.00 68 1018.5
20260904004946 22 0.0 0.0 0.00 0.00 0.00 67 1018.2
20260904003519 22 0.0 0.0 0.00 0.00 0.00 66 1018.5
20260904002425 22 0.0 0.0 0.00 0.00 0.00 67 1018.6
20260904001421 22 0.0 0.0 0.00 0.00 0.00 67 1018.6
20260904000411 22 0.0 0.0 0.00 0.00 0.00 67 1018.7
20260903235425 22 0.0 0.0 0.00 0.00 0.00 67 1018.5
20260903234401 22 0.0 0.0 0.00 0.00 0.00 68 1018.7
20260903233400 22 315 0.0 1.6 0.00 0.00 0.00 68 1018.9
20260903232357 22 0.0 0.0 0.00 0.00 0.00 67 1018.6
20260903231352 23 0.0 0.0 0.00 0.00 0.00 65 1018.6
20260903230350 22 0.0 1.6 0.00 0.00 0.00 66 1018.5
20260903225347 22 0.0 0.0 0.00 0.00 0.00 67 1018.6
20260903224340 22 0.0 0.0 0.00 0.00 0.00 68 1018.5
20260903223337 23 315 1.6 4.8 0.00 0.00 0.00 67 1018.6
20260903222335 23 315 1.6 3.2 0.00 0.00 0.00 67 1018.6
20260903221348 22 315 1.6 3.2 0.00 0.00 0.00 68 1018.7
20260903220323 23 0.0 0.0 0.00 0.00 0.00 65 1018.5
20260903215313 23 0.0 0.0 0.00 0.00 0.00 66 1018.6
20260903214350 23 0.0 0.0 0.00 0.00 0.00 65 1018.5
20260903213305 23 0.0 0.0 0.00 0.00 0.00 67 1018.4
20260903212306 23 0.0 0.0 0.00 0.00 0.00 70 1018.3
20260903211338 23 0.0 0.0 0.00 0.00 0.00 70 1018.3
20260903205349 25 0.0 0.0 0.00 0.00 0.00 61 1018.5
20260903204343 25 0.0 0.0 0.00 0.00 0.00 61 1018.4
20260903203339 25 0.0 0.0 0.00 0.00 0.00 61 1018.4
20260903202336 25 0.0 0.0 0.00 0.00 0.00 61 1018.4
20260903201333 26 0.0 0.0 0.00 0.00 0.00 59 1018.1
20260903200329 26 0.0 0.0 0.00 0.00 0.00 59 1018.4
20260903195326 26 0.0 0.0 0.00 0.00 0.00 58 1018.3
20260903194322 26 0.0 0.0 0.00 0.00 0.00 58 1017.9
20260903193353 26 0.0 0.0 0.00 0.00 0.00 58 1018.1
20260903192309 26 0.0 0.0 0.00 0.00 0.00 58 1018.1
20260903191258 26 0.0 0.0 0.00 0.00 0.00 58 1017.9
20260903185800 27 0.0 0.0 0.00 0.00 0.00 59 1017.8
20260903184757 27 0.0 0.0 0.00 0.00 0.00 58 1017.7
20260903183753 27 0.0 0.0 0.00 0.00 0.00 58 1017.6
20260903182810 28 0.0 0.0 0.00 0.00 0.00 55 1017.4
20260903181747 28 0.0 0.0 0.00 0.00 0.00 54 1017.4
20260903180737 28 0.0 0.0 0.00 0.00 0.00 53 1017.3
20260903175733 29 0.0 0.0 0.00 0.00 0.00 53 1017.3
20260903174745 30 0.0 0.0 0.00 0.00 0.00 51 1017.2
20260903173718 30 0.0 0.0 0.00 0.00 0.00 49 1016.9
20260903172716 30 0.0 1.6 0.00 0.00 0.00 48 1017.2